Weather Roundup
Issued by NWS

Home | Current Version | Previous Version | Graphics & Text | Print | Product List | Glossary Off
Versions: 1 2 3 4 5 6 7 8 9 10 11 12 13 14 15 16 17 18 19 20 21 22 23 24 25 26 27 28 29 30 31 32 33 34 35 36 37 38 39 40 41 42 43 44 45 46 47 48 49 50

000
NZUS93 KARX 130759
HRRWXR

CURRENT HOURLY OBSERVATIONS ACROSS
MUCH OF THE UPPER MISSISSIPPI VALLEY
NATIONAL WEATHER SERVICE LA CROSSE WI
200 AM CST SAT FEB 13 2016


...SOUTHEAST MINNESOTA...


CITY           SKY/WX    TMP DP  RH WIND       PRES   REMARKS
ROCHESTER      CLOUDY    -6 -13  71 NW13      30.56R WCI -25
ROCHESTER/MAYO FAIR      -1 -10  66 NW9       30.58S WCI -16
WINONA         CLOUDY     3 -11  51 NW12      30.62S WCI -13
AUSTIN         CLOUDY    -2  -9  71 NW6       30.57S WCI -14
ALBERT LEA     CLOUDY    -2  -9  71 CALM      30.58S
DODGE CENTER   CLOUDY    -6 -11  77 NW10      30.55F WCI -23
PRESTON        CLOUDY    -4 -13  65 NW8       30.56S WCI -19
OWATONNA       CLOUDY    -8 -15  71 NW5       30.59F WCI -19
FARIBAULT      CLOUDY    -4 -13  65 NW5       30.60F WCI -15
$$

...ELSEWHERE IN MINNESOTA...


CITY           SKY/WX    TMP DP  RH WIND       PRES   REMARKS
MINNEAPOLIS    CLOUDY    -3 -12  65 NW9       30.64R WCI -19
INTNL FALLS    CLOUDY   -18 -23  77 NW5       30.55S WCI -31
DULUTH         CLOUDY   -12 -21  64 NW9       30.53R WCI -30
RED WING       NOT AVBL
REDWOOD FALLS  CLOUDY    -4  -9  79 NW7       30.64R WCI -18
MANKATO        CLOUDY    -2 -11  65 NW6       30.61S WCI -14
WORTHINGTON    CLOUDY    -8 -13  77 NW6       30.59S WCI -21
FAIRMONT       CLOUDY    -2  -9  71 NW10      30.59S WCI -19
$$

...SOUTHWEST WISCONSIN...


CITY           SKY/WX    TMP DP  RH WIND       PRES   REMARKS
LA CROSSE      PTCLDY    -1 -14  53 NW6       30.61R WCI -13
PRAIRIE DU CHI PTCLDY     1 -12  55 NW7       30.60R WCI -12
BOSCOBEL       PTCLDY    -2 -12  62 CALM      30.60R
LONE ROCK      NOT AVBL
PLATTEVILLE    CLOUDY     0  -9  64 W7        30.54R WCI -13
FORT MC COY    PTCLDY    -2 -13  57 NW3       30.57R
CAMP DOUGLAS   CLOUDY    -6 -17  59 NW8       30.55R WCI -22
VIROQUA        FAIR      -4 -15  60 NW8       30.51R WCI -19
WIS DELLS      CLOUDY    -2 -17  49 NW6       30.52R WCI -14
$$

...ELSEWHERE IN WISCONSIN...


CITY           SKY/WX    TMP DP  RH WIND       PRES   REMARKS
MILWAUKEE      CLEAR      3 -12  49 NW13      30.49R WCI -14
MADISON        CLEAR      0 -15  49 NW6       30.52R WCI -12
GREEN BAY      CLEAR     -3 -13  62 W10       30.48R WCI -20
EAU CLAIRE     NOT AVBL
BLACK RVR FLS  FAIR      -1 -17  48 NW7       30.56R WCI -15
MEDFORD        CLOUDY    -7 -18  60 NW8       30.44R WCI -23
WAUSAU         CLEAR     -3 -15  56 NW12G22   30.45R WCI -21
WIS RAPIDS     CLOUDY    -4 -18  51 NW8       30.52R WCI -19
MARSHFIELD     CLOUDY    -5 -19  51 NW10      30.48R WCI -23
RICE LAKE      CLOUDY    -5 -17  56 NW6       30.57S WCI -18
$$

...NORTHEAST IOWA...


CITY           SKY/WX    TMP DP  RH WIND       PRES   REMARKS
WATERLOO       CLOUDY    -2 -10  69 NW7       30.61S WCI -15
DUBUQUE        CLEAR      3  -9  57 NW13      30.55R WCI -14
DECORAH        CLOUDY    -2 -13  60 NW8       30.56R WCI -17
MASON CITY     CLOUDY    -6 -11  79 NW10      30.61S WCI -24
CHARLES CITY   CLOUDY    -2 -13  60 NW10      30.60R WCI -19
OELWEIN        CLOUDY    -4 -13  65 NW9       30.59S WCI -20
$$

...ELSEWHERE IN IOWA...


CITY           SKY/WX    TMP DP  RH WIND       PRES   REMARKS
DES MOINES     CLOUDY     3  -4  72 N6        30.64S WCI  -8
IOWA CITY      CLOUDY     6  -5  60 NW8       30.64R WCI  -7
FORT DODGE     CLOUDY    -2  -9  71 CALM      30.63S
MARSHALLTOWN   CLOUDY    -1  -5  82 W6        30.61S WCI -13
CEDAR RAPIDS   CLOUDY     4  -5  66 NW8       30.60R WCI  -9
$$

...NORTHERN ILLINOIS...


CITY           SKY/WX    TMP DP  RH WIND       PRES   REMARKS
CHICAGO-OHARE  CLEAR      5 -11  47 NW16      30.50R WCI -14
CHICAGO-MIDWAY PTCLDY     7 -12  41 NW17G23   30.51R WCI -12
MOLINE         CLEAR      7  -7  52 NW12      30.60R WCI  -8
ROCKFORD       PTCLDY     5 -10  50 N7        30.56R WCI  -7
PEORIA         CLEAR      8  -3  61 N5        30.58R WCI   0
$$

NOTE: "FAIR" INDICATES FEW OR NO CLOUDS BELOW 12,000 FEET WITH NO
SIGNIFICANT WEATHER AND/OR OBSTRUCTIONS TO VISIBILITY. WIND
SPEEDS ARE IN MILES-PER-HOUR.




USA.gov is the U.S. government's official web portal to all federal, state and local government web resources and services.